Location: ???????
(55.4362°N, 38.1183°E)
Time: 18:25:10
(UTC+00:00)

Cosmos 2278 Rocket - Pass Details

Date: 01 November 2021
Orbit: 841 x 845 km, 71.0° (Epoch: 28 November)

Event Time Altitude Azimuth Distance (km) Brightness Sun altitude
Rises 15:48:35 0° 325° (NW) 3,418 5.9 -17.3°
Reaches altitude 10° 15:51:03 10° 325° (NW) 2,479 5.1 -17.7°
Maximum altitude 15:56:45 85° 240° (WSW) 856 2.2 -18.5°
Enters shadow 16:02:10 11° 151° (SSE) 2,369 4.2 -19.2°
